[[{"header":{"parameterUnit":"m.s-1","parameterCategory":1,"la1":30.2992,"la2":30.254,"lo1":-89.0895,"lo2":-89.0443,"dy":0.0025,"dx":0.0025,"nx":19,"ny":19,"refTime":"2026-05-01T03:00:00:Z","depth":0,"parameterNumber":2,"parameterNumberName":"U-component_of_WINDS"},"data":[0,0,0,-4.484,-4.4844,-4.4999,-4.5,-4.5214,-4.5216,0,0,0,0,0,0,0,0,0,0,0,-4.4804,-4.4806,-4.484,-4.4844,-4.4999,-4.5,-4.5214,-4.5216,0,0,0,0,0,0,0,0,0,0,0,-4.4803,-4.4805,-4.4808,-4.4845,-4.4999,-4.5,-4.5213,-4.509,0,0,0,0,0,0,0,0,0,0,-4.4937,-4.4913,-4.4805,-4.4808,-4.4846,-4.4999,-4.5,-4.5084,-4.5098,-4.5151,0,-4.52,0,-4.5211,-4.5231,-4.5232,0,0,0,-4.4837,-4.4902,-4.4935,-4.4808,-4.4847,-4.4999,-4.4927,-4.5092,-4.5107,-4.5169,-4.5203,-4.521,-4.5215,-4.5233,-4.5234,-4.5561,-4.5562,0,0,-4.4828,-4.4837,-4.4924,-4.4945,-4.4922,-4.4922,-4.4932,-4.5101,-4.5138,-4.5203,-4.5215,-4.5218,-4.5234,-4.5236,-4.5559,-4.5561,0,0,0,-4.4809,-4.4832,-4.486,-4.4937,-4.4964,-4.4927,-4.4938,-4.5131,-4.5139,-4.5217,-4.5221,-4.5236,-4.5239,-4.5557,-4.556,-4.5662,0,0,0,-4.4803,-4.482,-4.4857,-4.4864,-4.4961,-4.5049,-4.4965,-4.5128,-4.5146,-4.522,-4.5236,-4.5241,-4.5555,-4.5558,-4.5654,-4.5709,0,0,0,-4.4791,-4.4818,-4.4844,-4.4864,-4.4931,-4.5046,-4.5064,-4.5131,-4.5149,-4.5232,-4.5241,-4.5553,-4.5558,-4.5648,-4.5698,-4.5798,0,0,0,-4.478,-4.4933,-4.4846,-4.5018,-4.493,-4.5108,-4.5063,-4.5195,-4.5278,-4.5237,-4.5555,-4.5559,-4.5646,-4.5692,-4.5792,-4.5885,-4.5925,0,0,-4.4978,-4.4957,-4.5057,-4.4984,-4.518,-4.5083,-4.5294,-4.5362,-4.5361,-4.5494,-4.5502,-4.5657,-4.5698,-4.5797,-4.614,-4.6172,0,0,0,-4.5123,-4.5195,-4.5245,-4.5324,-4.5379,-4.5431,-4.5465,-4.549,-4.5603,-4.5431,-4.5719,-4.5743,-4.5801,-4.5845,-4.5872,-4.5922,-4.558,-4.5579,-4.5579,-4.5417,-4.5408,-4.5573,-4.5582,-4.566,-4.5693,-4.5755,-4.5794,-4.5762,-4.583,-4.5871,-4.608,-4.6133,-4.6153,-4.6204,-4.5918,-4.5918,-4.5918,-4.5919,-4.5707,-4.5809,-4.5761,-4.5905,-4.5894,-4.6014,-4.6052,-4.6025,-4.6136,-4.6049,-4.61,-4.6008,-4.6187,-4.6232,-4.5926,-4.5925,-4.5924,-4.5923,-4.5923,-4.5901,-4.5948,-4.5975,-4.6088,-4.6177,-4.618,-4.6288,-4.6274,-4.6261,-4.6311,-4.6352,-4.6351,-4.6348,-4.6331,-4.6332,-4.6333,-4.6333,-4.6334,-4.6334,-4.6092,-4.6119,-4.6212,-4.6282,-4.6331,-4.6394,-4.6427,-4.6475,-4.6524,-4.6505,-4.6505,-4.6467,-4.6206,-4.6142,-4.6345,-4.6343,-4.6342,-4.6341,-4.634,-4.6394,-4.6323,-4.6467,-4.6516,-4.6597,-4.6686,-4.6664,-4.6763,-4.6799,-4.6854,-4.6804,-4.6612,-4.659,-4.6569,-4.6516,-4.6804,-4.6804,-4.6804,-4.6804,-4.6559,-4.6545,-4.6689,-4.6768,-4.6844,-4.6839,-4.7002,-4.7029,-4.7046,-4.7068,-4.7023,-4.6951,-4.6929,-4.692,-4.6891,-4.6841,-4.7206,-4.7206,-4.7207,-4.6744,-4.6737,-4.688,-4.6894,-4.6956,-4.7009,-4.7162,-4.7254,-4.7258,-4.7223,-4.7085,-4.7068,-4.6951,-4.6913,-4.6877,-4.6832,-4.6741,0,0]},{"header":{"parameterUnit":"m.s-1","parameterCategory":1,"la1":30.2992,"la2":30.254,"lo1":-89.0895,"lo2":-89.0443,"dy":0.0025,"dx":0.0025,"nx":19,"ny":19,"refTime":"2026-05-01T03:00:00:Z","depth":0,"parameterNumber":3,"parameterNumberName":"V-component_of_WINDS"},"data":[0,0,0,-9.3904,-9.3908,-9.4078,-9.4078,-9.4313,-9.4315,0,0,0,0,0,0,0,0,0,0,0,-9.3868,-9.387,-9.3903,-9.3908,-9.4078,-9.4078,-9.4313,-9.4315,0,0,0,0,0,0,0,0,0,0,0,-9.3867,-9.387,-9.3873,-9.3909,-9.4078,-9.4078,-9.4312,-9.4176,0,0,0,0,0,0,0,0,0,0,-9.4008,-9.3991,-9.3869,-9.3873,-9.391,-9.4078,-9.4079,-9.417,-9.4185,-9.4245,0,-9.4306,0,-9.4315,-9.4333,-9.4333,0,0,0,-9.3896,-9.3979,-9.4011,-9.3873,-9.3912,-9.4077,-9.3998,-9.4178,-9.4195,-9.4265,-9.4309,-9.4317,-9.4319,-9.4334,-9.4335,-9.4731,-9.4734,0,0,-9.3886,-9.3906,-9.4,-9.4023,-9.4003,-9.3992,-9.4003,-9.4188,-9.4235,-9.431,-9.4322,-9.4323,-9.4336,-9.4338,-9.4729,-9.4732,0,0,0,-9.3868,-9.39,-9.3927,-9.4014,-9.4044,-9.3998,-9.401,-9.4227,-9.4235,-9.4325,-9.4325,-9.4337,-9.4341,-9.4726,-9.473,-9.4871,0,0,0,-9.3861,-9.3889,-9.3924,-9.3938,-9.4041,-9.4139,-9.4045,-9.4222,-9.4242,-9.4324,-9.4338,-9.4343,-9.4724,-9.4728,-9.4861,-9.4933,0,0,0,-9.3852,-9.3887,-9.3918,-9.3938,-9.4013,-9.4135,-9.4153,-9.4226,-9.4244,-9.4334,-9.4344,-9.4722,-9.4728,-9.4853,-9.4919,-9.5043,0,0,0,-9.3846,-9.4039,-9.392,-9.4135,-9.4012,-9.4223,-9.4152,-9.4307,-9.4401,-9.4339,-9.4724,-9.473,-9.485,-9.491,-9.5034,-9.5151,-9.5202,0,0,-9.41,-9.407,-9.4195,-9.4094,-9.4332,-9.4195,-9.4451,-9.4517,-9.4505,-9.4655,-9.4665,-9.4864,-9.4918,-9.5041,-9.5481,-9.5522,0,0,0,-9.4281,-9.4371,-9.443,-9.4523,-9.458,-9.4634,-9.4658,-9.4682,-9.4809,-9.4588,-9.4942,-9.4973,-9.5045,-9.5099,-9.5134,-9.5193,-9.4756,-9.4756,-9.4755,-9.4668,-9.4646,-9.485,-9.4848,-9.4938,-9.4962,-9.5032,-9.5067,-9.5016,-9.51,-9.5145,-9.5415,-9.548,-9.5506,-9.5568,-9.5205,-9.5205,-9.5206,-9.5206,-9.5036,-9.516,-9.5089,-9.5263,-9.5236,-9.5379,-9.5409,-9.5368,-9.5495,-9.538,-9.5441,-9.5317,-9.5552,-9.5604,-9.5217,-9.5215,-9.5214,-9.5213,-9.5212,-9.5286,-9.5342,-9.537,-9.5501,-9.5604,-9.5593,-9.5719,-9.569,-9.5662,-9.5723,-9.5766,-9.5764,-9.5756,-9.5746,-9.5747,-9.5748,-9.5749,-9.575,-9.575,-9.5534,-9.5562,-9.5674,-9.5752,-9.5806,-9.5875,-9.59,-9.5952,-9.6001,-9.5969,-9.5969,-9.5909,-9.558,-9.5497,-9.5765,-9.5762,-9.576,-9.5759,-9.5758,-9.5916,-9.5825,-9.5999,-9.6055,-9.6141,-9.6244,-9.6205,-9.6313,-9.6351,-9.6414,-9.6341,-9.6103,-9.6068,-9.6041,-9.5972,-9.6346,-9.6346,-9.6346,-9.6346,-9.6126,-9.6107,-9.6278,-9.6368,-9.6453,-9.6436,-9.6628,-9.6649,-9.6654,-9.6676,-9.6617,-9.6524,-9.6497,-9.6479,-9.6441,-9.6377,-9.6846,-9.6846,-9.6847,-9.6359,-9.6346,-9.6518,-9.6527,-9.6593,-9.6648,-9.6828,-9.693,-9.6918,-9.6866,-9.6691,-9.667,-9.6519,-9.6471,-9.6415,-9.6358,-9.6239,0,0]}]]